Voltar ao catálogo

FENGYUN 1C DEB

AtivoSSO
NORAD 29988·DEBRIS·🇨🇳 China

Lançado May 10, 1999 de Taiyuan Satellite Launch Center

Loading…

Próximas Passagens (próximas 24 horas)

TLE

AtualizadoSource: Space-Track

Época: Sep 14, 2026, 07:02 UTC

1 29988U 99025LN  26257.29309301  .00004453  00000-0  97429-3 0  9990
2 29988  98.7080  16.3880 0112081 259.5455 128.9661 14.54432211 20657

Acompanhe FENGYUN 1C DEB em tempo real com AllMySat

Download on the App Store